Tracking 19288 objects as of 20-Nov-2018
HD Live streaming from Space Station
objects crossing your sky now

TELSTAR 302

Track TELSTAR 302 now!
TELSTAR 302 is classified as:


NORAD ID: 15237
Int'l Code: 1984-093D
Perigee: 35,924.3 km
Apogee: 35,940.7 km
Inclination: 15.3 °
Period: 1,443.2 minutes
Semi major axis: 42303 km
RCS: 4.6276 m2 (large)
Launch date: August 30, 1984
Source: United States (US)
Launch site: AIR FORCE EASTERN TEST RANGE (AFETR)
aabbcc
Your satellite tracking list
Your tracking list is empty




NASA's NSSDC Master Catalog

Two Line Element Set (TLE):
1 15237U 84093D   18323.27407816 +.00000096 +00000-0 +00000-0 0  9999
2 15237 015.2592 008.4919 0001938 312.9993 046.9820 00.99778892018852
Source of the keplerian elements: AFSPC